Location: Recife
(8.0585°S, 34.8848°W)
Time: 11:03:10
(UTC-03:00)

Courier 1B Rocket - Pass Details

Date: 15 April 2026
Orbit: 920 x 1201 km, 28.2° (Epoch: 13 May)

Event Time Altitude Azimuth Distance (km) Brightness Sun altitude
Rises 16:10:52 0° 263° (W) 4,094 9.7 15.3°
Reaches altitude 10° 16:14:15 10° 274° (W) 3,118 10.2 14.5°
Maximum altitude 16:20:33 27° 329° (NNW) 2,079 7.5 12.9°
Drops below altitude 10° 16:26:38 10° 24° (NNE) 3,002 7.5 11.5°
Sets 16:29:51 0° 36° (NE) 3,915 7.9 10.7°
